Airfield :
LOGIN :

Register | Disclaimer

   EN    FR    IT 

 










Legend :    VFR   Marginal VFR   IFR   Intensive IFR   Very Intensive IFR
Visi :
Ceiling :
>= 8 km
>= 3000ft
5 to 8 km
1000 to 3000 ft
1500m to 5 km
500 to 1000 ft
800 to 1500m
200 to 500 ft
< 800m
< 200 ft
Symbols :   Thunderstorms  Fog  Heavy snow  Heavy precipitations  Wind > 20 kt
SIGMETs :     Misc.  Thunderstorms  Icing  Turbulence  Mountain Waves  Volcanic Ashes







- Airport Elevation : 184 ft
- IATA code : BRU


EBBR - Bruxelles

CURRENT METAR :
  • 221220Z 28009KT 240V350 9999 SCT048 19/07 Q1020 NOSIG

EXPIRED METARs :
  • 221150Z 31007KT 9999 SCT045 18/08 Q1020 NOSIG
  • 221120Z VRB05KT 9999 FEW042 18/09 Q1020 NOSIG
  • 221050Z 28005KT 230V320 9999 FEW040 18/08 Q1020 NOSIG
  • 221020Z 27003KT 200V350 9999 FEW035 17/08 Q1020 NOSIG
  • 220950Z VRB02KT 9999 FEW030 17/10 Q1020 NOSIG

TAF TAF EBBR
Valid from the 22 at 12:00 until the 23 at 18:00 UTC


221100Z 2212/2318 31007KT 9999 FEW040
No reported NOTAMs for that airfield.



MET'MAP, your aeronautical weather chart ! - Copyright ORBIFLY December 2007 - Disclaimer

ORBIFLY MET'MAP TEAM :

Programming & Development : Alexandra Zaïnal
Concept & Development : Baudouin d'Aumeries
Co-Development & Prog : Marc-Olivier Méhu
Technical & hardware support : Manuel Goepfert

Contact : metmap@orbifly.com




SOURCES & CREDITS :

   NOAA